Location: Dallas
(32.7833°N, 96.8000°W)
Time: 18:27:52
(UTC-05:00)

ISS - Pass Details

Date: 23 March 2018
Orbit: 411 x 421 km, 51.6° (Epoch: 15 October)

Event Time Altitude Azimuth Distance (km) Brightness Sun altitude
Rises 20:27:33 0° 237° (WSW) 2,365 0.9 -10.6°
Reaches altitude 10° 20:29:42 10° 244° (WSW) 1,503 -0.1 -11.0°
Maximum altitude 20:32:58 46° 319° (NW) 576 -2.7 -11.7°
Drops below altitude 10° 20:36:15 10° 34° (NE) 1,508 -1.2 -12.4°
Enters shadow 20:37:27 - 38° (NE) 1,986 -0.6 -12.6°
